User: anonymous   Login
Location: San Francisco
(37.7750°N, 122.4180°W)
Time: 00:26:14
(UTC-08:00)
Language:

GP-B - Orbit

View from above orbital plane
View from above orbital plane
View from above satellite
View from above satellite

Ground track
Ground track

The orbit data is extracted from the following two-line orbital elements,

1 28230U 04014A   14331.86672464  .00001143  00000-0  15717-3 0  2276
2 28230 089.8796 137.7028 0001958 118.3168 241.8252 14.77781387571362
Epoch (UTC): 27 November 2014 20:48:05
Eccentricity: 0.0001958
inclination: 89.8796°
perigee height: 635 km
apogee height: 638 km
right ascension of ascending node: 137.7028°
argument of perigee: 118.3168°
revolutions per day: 14.77781387
mean anomaly at epoch: 241.8252°
orbit number at epoch: 57136

The dashed part of the orbit path shows where the satellite is in the earth's shadow,  

DLR